SCOUT G-1 DEB, 17164

Orbit data source: Space-Track

SCOUT G-1 DEB, 17164 is space debris in LEO originally from a launch on Sat, 03 Aug 1985 UTC launched from the Air Force Western Test Range (AFWTR). Debris objects in space refer to the collection of defunct objects orbiting the Earth. Examples of debris include non-operational satellites, rocket bodies, and fragments generated from explosions, collisions, or faulty payload assembly.

Loading next visibility...
Identifier
17164, 1985-066G
Orbit
LEO
Country
Flag of USUS
Related business
Manufacturer
Unknown
Mission
Spacecraft
Bus & Motor
Unknown
Mass
Unknown
Launch date (UTC)
1985-08-03 (41 years ago)
Launch vehicle
Unknown
Launch site
Air Force Western Test Range (AFWTR)
Object type
Payload
Rocket body
Debris
Shape & HBR
Unknown shape, 0.1 m
Radar Cross Section
Medium (>0.1 m² and <1 m²)

Expand to show TLE details & history
Last TLE update: 3 days ago

TLE from 3 days ago
0 SCOUT G-1 DEB
1 17164U 85066G   26170.38280257  .00000103  00000-0  16772-3 0  9995
2 17164  89.3867 213.1264 0202281 187.1568 187.9876 13.33286665986598
Epoch: 2026-06-19T09:11Z
TLE epoch observation values (Epoch: 2026-06-19T09:11:14.142Z)
Latitude
14.80163°
Longitude
167.86616°
Altitude
1,287.194 km
Speed
7.141 km/s
True Right ascension
14h 13m 09s
True Declination
14° 43' 22"
Sunlit
Object was in daylight at epoch
Visualization orbit readout
Latitude
Unknown
Longitude
Unknown
Altitude
Unknown
Speed
Unknown
Apparent Right ascension
Unknown
Apparent Declination
Unknown
Sunlit
N/A
Visualization observer readout
Local Sidereal Time
23:09:13
Azimuth
Unknown
Elevation
Unknown
Doppler factor
Unknown
Orbital elements
Apogee altitude
1,283.37 km
Perigee altitude
979.56 km
Semi-major axis
7,509.602 km
Eccentricity
0.02023
Inclination
89.3867°
RAAN
213.1264°
Arg. of periapsis
187.1568°
True anomaly
187.67338°
Mean anomaly
187.9876°
Eccentric anomaly
187.82971°
Mean motion
3.33517 °/min
Orbital period
107.94 mins
BSTAR
0.00016772
Loading maneuver chart data...
Computing Atmospheric mass density...
Loading historical data...
Loading historical data...
Loading historical data...
Loading historical data...
Loading historical data...
Loading historical data...
Loading historical data...

Documentation

Showing up to 5 results
|